This is the latest recevied weather packets stored in our database for station/object DL0BB-10. If no packets are shown the sender has not sent any weather packets the latest 10 day(s).
| Time | Temp. | Humidity | Pressure | Rain* | Wind** | Luminosity | Snow |
|---|---|---|---|---|---|---|---|
| 1788202787 | 26.11° C | 42% | 1019.6 hPa | - | - | - | - |
| 1788201887 | 26.67° C | 40% | 1019.6 hPa | - | - | - | - |
| 1788200987 | 26.67° C | 41% | 1019.4 hPa | - | - | - | - |
| 1788200087 | 26.11° C | 42% | 1019.3 hPa | - | - | - | - |
| 1788199187 | 26.11° C | 41% | 1019.2 hPa | - | - | - | - |
| 1788198287 | 27.22° C | 40% | 1019.2 hPa | - | - | - | - |
| 1788197387 | 26.11° C | 42% | 1019 hPa | - | - | - | - |
| 1788196486 | 26.11° C | 42% | 1018.9 hPa | - | - | - | - |
| 1788195586 | 26.67° C | 41% | 1018.8 hPa | - | - | - | - |
| 1788194686 | 27.22° C | 40% | 1018.8 hPa | - | - | - | - |
| 1788193786 | 26.11° C | 42% | 1018.9 hPa | - | - | - | - |
| 1788192886 | 26.11° C | 41% | 1019.2 hPa | - | - | - | - |
| 1788191986 | 26.67° C | 41% | 1019.5 hPa | - | - | - | - |
| 1788191085 | 27.22° C | 40% | 1018.4 hPa | - | - | - | - |
| 1788190183 | 26.11° C | 42% | 1018.4 hPa | - | - | - | - |
| 1788189283 | 26.67° C | 41% | 1018.8 hPa | - | - | - | - |
| 1788188383 | 27.22° C | 40% | 1018.7 hPa | - | - | - | - |
| 1788187485 | 27.22° C | 40% | 1017.9 hPa | - | - | - | - |
| 1788186585 | 26.67° C | 41% | 1017.4 hPa | - | - | - | - |
| 1788185685 | 26.67° C | 41% | 1017.3 hPa | - | - | - | - |
| 1788184799 | 27.22° C | 40% | 1017.3 hPa | - | - | - | - |
| 1788183885 | 26.67° C | 41% | 1017.6 hPa | - | - | - | - |
| 1788182984 | 26.11° C | 41% | 1017.9 hPa | - | - | - | - |
| 1788182084 | 26.67° C | 41% | 1018.1 hPa | - | - | - | - |
| 1788181184 | 27.22° C | 40% | 1018.1 hPa | - | - | - | - |
* Rain since midnight (hover to see other rain measurements)
** Current wind speed in m/s (hover to see current wind gust speed)